Regional Weather Roundup
Issued by NWS Upton, NY

Home | Current Version | Previous Version | Text Only | Print | Product List | Glossary On
Versions: 1 2 3 4 5 6 7 8 9 10 11 12 13 14 15 16 17 18 19 20 21 22 23 24 25 26 27 28 29 30 31 32 33 34 35 36 37 38 39 40 41 42 43 44 45 46 47 48 49 50
000
ASUS41 KOKX 220609
RWROKX

REGIONAL WEATHER ROUNDUP
NATIONAL WEATHER SERVICE NEW YORK NY
200 AM EDT FRI SEP 22 2017

NOTE: "FAIR" INDICATES FEW OR NO CLOUDS BELOW 12,000 FEET WITH NO
SIGNIFICANT WEATHER AND/OR OBSTRUCTIONS TO VISIBILITY.

NYZ071-072-176-178-NJZ106-104-220700-
NEW YORK CITY METRO AREA

CITY           SKY/WX    TMP DP  RH WIND       PRES   REMARKS
Central Park   CLOUDY    72  51  47 NE9G17    30.05R
Bronx Bot Gard   N/A     68  54  60 NW7       30.04R
LaGuardia APRT CLOUDY    71  52  50 N13       30.01R
Kennedy INTL   CLOUDY    71  50  47 N18G24    30.01S
Breezy Point     N/A     70 N/A N/A N12G17      N/A
Newark/Liberty CLOUDY    70  61  73 N8        30.02R
Teterboro      CLOUDY    70  60  70 N10       30.02R
$$

NYZ177-179-078>081-220700-
LONG ISLAND NEW YORK

CITY           SKY/WX    TMP DP  RH WIND       PRES   REMARKS
Jones Beach      N/A     68 N/A N/A N20G26      N/A
Matinecock PT    N/A     70 N/A N/A NE16        N/A
Farmingdale    CLOUDY    69  50  50 N15       29.99F
MacArthur/ISP  MOCLDY    69  50  50 N15       29.96F
Shirley        CLOUDY    71  51  49 N20G28    29.95F
Mt Sinai Harb    N/A    N/A N/A N/A N18         N/A
Westhampton    CLOUDY    68  49  50 N18G26    29.95F
East Hampton   LGT RAIN  65  53  65 N16G22    29.93F
Montauk          N/A     67  56  67 N17G29    29.92F
$$

NYZ052-065-067-220700-
HUDSON VALLEY

CITY           SKY/WX    TMP DP  RH WIND       PRES   REMARKS
White Plains   CLOUDY    67  48  50 N8        30.02S
Larchmont Harb   N/A     68 N/A N/A N10         N/A
Croton On Huds   N/A     68 N/A N/A N3G9        N/A
Newburgh       NOT AVBL
Montgomery     CLOUDY    64  59  83 CALM      30.05S
Poughkeepsie   CLOUDY    62  59  90 N3        30.05R
Albany         CLOUDY    62  56  80 CALM      30.10R
$$

NJZ001-105-106-008-010-013-015-019>022-104-220700-
NEW JERSEY

CITY           SKY/WX    TMP DP  RH WIND       PRES   REMARKS
Newark/Liberty CLOUDY    70  61  73 N8        30.02R
Teterboro      CLOUDY    70  60  70 N10       30.02R
Caldwell       CLOUDY    68  63  84 MISG      30.04R
Somerville     NOT AVBL
Linden         FAIR      70  60  70 CALM      30.02R
Perth Amboy      N/A     70 N/A N/A N8          N/A
Sussex         CLOUDY    59  59 100 CALM      30.05F FOG
Andover          N/A     61  60  97 CALM      30.06S
Trenton        CLOUDY    68  61  78 N6        30.02S
Millville      CLOUDY    70  69  97 W5        30.01F
Atlantic City  PTCLDY    68  64  87 CALM      30.01S
Wrightstown    CLEAR     67  62  83 N8        29.99S
Toms River     CLOUDY    67  62  84 NW7       30.01S
Belmar         CLOUDY    68  64  87 N5        30.02S
$$

PAZ047>061-062-071-220700-
EASTERN PENNSYLVANIA

CITY           SKY/WX    TMP DP  RH WIND       PRES   REMARKS
Philadelphia   CLOUDY    73  60  63 N8        30.02F
Allentown      CLOUDY    66  60  81 CALM      30.05S
Scranton       CLOUDY    62  60  93 S3        30.08F
$$

CTZ002-004>006-009-010-012-RIZ004-006-007-MAZ004-011-015-220700-
SOUTHERN NEW ENGLAND
 IN CT

CITY           SKY/WX    TMP DP  RH WIND       PRES   REMARKS
Bradley INTL   MOCLDY    64  49  57 N10       30.04S
Hartford       CLOUDY    67  49  52 N12       30.02S
Danbury        CLOUDY    68  48  48 N9        30.05S
Wtrbury/Oxford CLOUDY    63  48  58 N13       30.04S
Norwalk Harbor   N/A     68 N/A N/A N13         N/A
Bridgeport     CLOUDY    69  48  47 N15G21    29.99F
Meriden        PTCLDY    66  48  52 N12G20    30.01S
New Haven      CLOUDY    68  48  48 N15       29.99F
Chester        MOCLDY    68  48  49 N14G28    29.98F
Groton         CLOUDY    67  51  56 N23G32    29.93F
Wilimantic     CLOUDY    67  50  54 N18G24    30.00F

 IN RI

CITY           SKY/WX    TMP DP  RH WIND       PRES   REMARKS
Providence     LGT RAIN  63  57  81 N29G44    29.97F
Block Island   LGT RAIN  64  57  78 N33G53    29.88F
Westerly       LGT RAIN  67  54  63 N18G33    29.94S
 IN MA

CITY           SKY/WX    TMP DP  RH WIND       PRES   REMARKS
Boston         CLOUDY    61  55  81 N24G37    30.02F
Worcester      MOCLDY    60  46  59 N14G23    30.05S
Westfield      CLOUDY    62  50  64 N8        30.05F
Provincetown   CLOUDY    61  55  81 NE24G35   29.92F
Nantucket      LGT RAIN  61  61 100 N36G45    29.77F FOG
$$

ANZ330-335-338-340-345-350-353-355-220700-
COASTAL MARINE OBSERVATIONS


STATION/POSITION TIME  SKY/WX   TEMP    WIND        PRES    VSBY  WAVE
                                AIR SEA DIR/SP/G                  HT/PER
                 (UTC)          (F)     (DEG/KT/KT) (MB)    (MI)  (FT/S)
NY HARB ENTRANCE 0450            72 70  360/ 16/ 17 1014.8          4/11
20 S FIRE ISLAND 0450            70 67   10/ 19/ 25 1014.4          8/10
GREAT SOUTH BAY  0530            70 70   10/ 16/ 23   N/A
23 SSW MONTAUK P 0450            65 65              1012.3          9/10
15 E BARNEGAT LI 0530               69                N/A           6/10
HUDSON CANYON    0450            68 68  360/ 25/ 33 1011.8         12/10
KINGS POINT      0548                    50/ 11/ 16 1017.1
EXECUTION ROCKS  0545            71      40/ 12/ 16   N/A
WESTERN LI SOUND NOT AVBL
CENTRAL LI SOUND 0530            70      20/ 19/ 23   N/A           2
EASTERN LI SOUND NOT AVBL
ROBBINS REEF     0548                    10/ 16/ 19 1017.0
$$


>>>>>>>>>>>>>>>>>>>>>>>>>>>> KEY <<<<<<<<<<<<<<<<<<<<<<<<<<<
>                                                          <
>     SKY/WX - Sky Condition/Present Weather               <
>     TMP    - Temperature in Fahrenheit                   <
>     DP     - Dew Point in Fahrenheit                     <
>     RH     - Relative Humidity in Percent                <
>     WIND   - Direction (from) and Speed in MPH           <
>     PRES   - Mean Sea Level Pressure (inches of Hg)      <
>     WCI    - Wind Chill Index                            <
>     VSB    - VISIBILITY IN MILES                         <
>     HX     - HEAT INDEX                                  <
>     TC     - TEMPERATURE IN CELSIUS                      <
>     VRB    - VARIABLE WIND DIRECTION                     <
>                                                          <
>>>>>>>>>>>>>>>>>>>>>>>>>>>> KEY <<<<<<<<<<<<<<<<<<<<<<<<<<<



USA.gov is the U.S. government's official web portal to all federal, state and local government web resources and services.